Wind_Speed
24 22 19 16 14 13 14 16 18 20 23 25 29 32 36 41 47 53 59 63 66 68 68 69 70 73 74 74 74 73 72 70 68 67 67 67 67 65 63 61 60 60 58 57 55 53 51 49 46 45 45 47 49 47 44 41 40 40 38 36 34 32 31 31 31 30 28 27 27 29 31 32 32 31
27 26 23 19 16 14 14 14 15 17 19 21 24 27 30 33 37 42 48 55 61 66 68 69 70 71 74 77 78 78 77 75 73 71 69 69 69 68 67 65 64 62 60 59 59 59 58 55 52 50 50 51 51 50 46 44 44 43 40 38 37 36 35 34 34 33 30 28 28 29 31 33 33 33
30 28 26 22 18 16 16 16 16 16 17 18 20 22 25 28 31 35 38 44 51 58 64 67 69 70 72 76 79 80 80 79 77 76 74 72 71 69 67 67 67 66 63 61 60 61 60 59 58 56 54 54 54 52 50 48 46 45 44 43 41 40 38 37 37 36 33 30 29 30 31 33 33 34
31 30 29 25 20 18 18 19 18 18 18 18 19 21 22 25 27 31 34 37 42 47 53 60 66 70 71 73 77 80 81 81 80 79 78 77 75 73 70 68 68 68 66 64 62 62 61 61 61 60 58 57 56 54 53 51 49 48 48 47 44 43 42 39 38 39 37 33 30 30 32 33 34 34
32 32 30 27 23 20 21 21 21 20 20 20 20 20 21 23 25 27 30 33 37 40 44 49 56 63 69 72 74 77 80 82 82 81 80 79 78 78 76 73 71 70 69 68 66 64 63 62 62 61 60 59 58 56 55 54 52 50 51 49 46 45 44 41 40 41 41 37 32 32 33 34 34 35
33 32 31 27 24 23 23 24 24 23 22 22 22 22 22 22 23 25 27 30 32 36 40 42 46 52 59 66 72 74 77 79 81 82 81 80 80 79 78 77 75 73 72 71 70 68 67 65 64 62 61 61 61 59 58 58 56 53 53 52 49 46 44 42 41 43 43 41 37 35 34 35 35 35
33 32 30 27 24 24 26 27 27 26 25 23 23 23 23 23 23 23 25 27 29 32 35 39 41 44 48 54 63 70 74 77 79 81 82 81 81 80 79 79 78 77 76 74 73 72 71 70 69 66 64 62 63 63 62 62 60 56 55 55 51 47 45 44 44 44 44 44 42 38 36 36 36 36
33 32 30 27 25 26 27 29 29 28 27 26 25 25 24 24 24 24 24 24 26 29 32 35 38 40 42 45 50 59 67 73 77 79 81 82 82 82 81 81 80 80 80 79 77 75 74 73 72 71 68 65 64 64 65 65 63 58 55 55 54 51 48 47 46 45 44 44 44 43 41 38 36 37
32 31 29 27 27 28 29 30 30 29 29 29 28 26 26 25 24 25 24 24 24 26 29 32 34 37 39 41 43 47 54 64 72 77 79 81 82 83 83 83 82 82 82 82 81 80 77 75 73 73 72 70 68 67 67 67 65 61 57 56 56 54 52 50 49 48 46 45 45 46 45 41 38 39
32 31 29 29 29 31 32 32 32 31 30 30 30 29 28 26 25 25 25 24 23 24 26 29 31 34 36 38 40 41 44 51 61 70 77 79 81 82 84 85 84 84 84 84 84 83 82 79 76 75 76 75 72 70 69 68 66 64 61 59 58 57 55 53 52 51 49 48 47 47 48 45 42 42
31 31 31 31 32 33 34 33 33 32 32 32 32 31 29 28 27 26 26 25 24 24 24 26 29 31 33 36 38 40 41 43 48 57 68 76 80 82 83 85 86 86 86 86 86 85 85 83 81 79 78 79 78 75 72 70 68 67 65 64 63 62 60 58 56 55 53 52 50 49 49 48 47 45
31 31 31 32 33 33 34 34 34 33 33 32 32 32 31 30 30 29 27 27 26 26 25 26 27 29 31 34 36 38 40 41 43 46 54 65 75 81 82 83 85 87 88 88 87 87 86 86 85 83 82 82 82 81 78 75 72 71 69 68 67 67 65 63 62 60 58 56 54 53 51 51 51 50
30 30 31 31 32 33 34 34 34 34 33 33 33 33 33 33 32 31 30 30 29 28 28 27 27 28 30 32 35 37 39 41 42 43 46 52 62 73 81 83 84 86 89 90 90 89 88 87 87 87 86 85 85 86 84 82 79 77 76 74 73 72 71 69 67 65 63 60 58 57 55 55 55 54
30 31 32 33 33 34 35 35 36 36 36 35 35 35 35 35 34 34 33 32 32 31 31 30 29 29 29 31 33 36 38 40 41 43 44 46 51 60 71 80 83 85 87 90 92 92 91 91 90 89 90 90 89 88 87 85 84 82 81 81 80 79 78 75 72 70 67 65 63 61 59 60 60 59
33 33 34 35 35 35 36 37 38 38 38 38 38 37 37 37 37 36 36 35 35 35 34 33 32 32 31 31 32 35 37 39 41 42 44 46 47 51 58 68 78 84 86 88 91 94 94 94 93 92 92 92 92 91 90 87 86 84 83 83 82 81 81 79 76 73 70 69 67 66 64 64 64 63
36 35 35 36 37 37 38 38 39 40 41 41 40 40 39 39 39 38 38 38 37 37 37 36 35 35 35 33 32 34 37 39 41 42 44 46 48 50 52 57 66 76 83 87 90 93 95 96 97 96 95 94 95 95 93 91 89 88 86 85 83 82 81 80 78 75 73 72 72 71 68 67 67 67
40 38 38 38 39 40 40 40 41 42 42 42 42 41 41 41 41 40 39 39 38 38 38 38 37 37 38 36 34 35 36 38 40 43 44 46 48 50 52 54 57 63 73 82 88 92 93 96 98 99 99 97 96 96 96 95 93 91 89 87 85 84 83 82 80 78 76 75 75 75 73 71 70 70
43 42 41 40 40 41 42 43 44 44 44 43 42 41 41 41 42 42 41 40 39 39 39 39 38 38 39 39 38 36 37 38 40 42 45 46 48 51 53 54 55 57 62 71 81 89 92 94 96 99 101 100 98 97 97 97 96 95 92 90 88 86 85 84 83 82 81 80 79 79 77 74 73 73
46 46 45 44 43 43 44 45 46 46 46 45 43 42 41 41 41 42 42 42 40 39 39 39 39 39 39 40 40 38 38 39 40 42 44 46 49 51 53 55 55 56 58 62 69 79 87 91 94 96 99 101 101 100 98 98 98 98 96 93 91 89 87 86 86 86 84 83 82 82 79 76 74 75
47 48 48 47 46 45 45 46 47 48 47 46 45 44 43 42 41 41 42 42 41 40 40 39 39 39 40 40 40 39 39 40 41 42 44 46 48 51 53 54 55 56 58 60 63 69 76 83 89 93 96 99 101 102 101 100 100 99 99 97 94 92 90 89 88 88 87 85 85 84 81 77 76 77
47 49 50 50 49 48 47 47 48 48 48 47 47 46 44 42 41 41 41 42 41 41 40 40 39 40 40 41 41 40 39 40 41 42 43 45 47 49 51 53 54 56 57 59 61 64 68 72 79 86 92 96 99 101 103 103 102 101 100 99 98 95 93 91 89 89 88 87 87 87 84 80 78 79
47 49 50 51 51 50 49 49 50 49 48 48 48 46 44 42 41 42 42 41 41 41 41 40 40 40 41 41 41 40 40 39 40 42 43 44 45 48 49 51 53 54 54 56 59 63 65 66 70 76 84 90 95 99 101 103 104 103 102 101 100 99 96 93 91 90 89 89 89 89 87 84 81 81
48 49 50 51 51 51 50 51 52 49 48 49 49 46 44 43 42 43 44 42 40 41 40 40 40 41 41 42 42 41 40 40 41 42 43 43 44 46 47 48 51 51 50 51 56 61 64 65 66 69 74 80 88 94 98 101 103 104 105 104 102 101 99 97 94 92 91 91 91 91 90 88 86 84
51 51 51 51 51 50 51 53 53 50 49 50 49 46 45 44 44 44 45 43 41 40 40 40 40 41 42 42 42 42 41 40 41 42 43 43 44 45 46 47 48 47 46 48 53 57 60 62 64 67 69 72 77 85 92 97 101 103 105 106 105 103 101 100 99 97 95 93 93 92 92 92 90 89
54 54 53 53 51 49 50 53 54 52 51 50 49 47 45 45 44 44 45 44 42 40 40 39 39 40 41 42 42 42 42 41 41 42 43 43 43 44 45 45 44 43 44 48 52 54 55 58 61 65 67 68 71 75 81 88 95 100 103 105 106 106 105 103 102 101 99 97 95 95 95 95 94 93
54 55 55 55 53 50 51 53 54 54 53 51 50 48 47 45 44 43 44 45 43 41 40 40 39 39 40 42 42 42 42 42 41 41 42 43 44 44 44 43 42 40 42 47 51 51 51 53 56 60 65 67 68 70 74 78 85 93 100 103 105 106 108 107 105 104 102 101 99 97 97 98 98 98
54 55 55 55 54 52 53 54 55 56 55 53 51 51 49 47 45 44 44 45 44 42 40 40 40 39 40 41 42 43 43 42 42 41 41 42 44 44 43 41 39 38 41 46 50 50 49 49 51 55 60 64 65 67 70 72 76 82 91 99 103 105 107 109 109 107 105 104 103 102 100 100 100 101
53 54 54 55 54 54 55 56 57 58 56 54 53 52 50 49 47 46 45 46 46 44 41 39 39 39 39 40 41 43 43 42 41 41 41 42 43 43 42 39 36 36 39 44 48 49 48 47 48 50 55 60 62 64 67 70 72 75 81 90 98 103 106 107 109 110 109 107 106 105 104 103 103 103
52 52 54 55 55 56 58 59 60 60 58 56 54 53 52 51 49 47 46 47 47 45 41 39 39 39 39 39 41 43 43 43 41 40 40 41 42 43 42 38 34 34 37 42 46 48 48 47 46 47 51 55 59 61 63 66 70 73 76 81 88 97 103 106 107 109 110 110 108 107 106 106 105 105
51 51 54 56 56 58 59 61 63 63 61 59 57 54 53 51 48 46 46 47 46 43 40 39 39 39 39 39 40 42 43 43 42 40 39 40 41 43 42 38 34 33 35 39 43 46 46 46 45 46 48 52 55 58 61 63 67 71 74 77 81 88 96 102 105 107 108 110 110 109 108 108 108 107
50 51 53 55 57 59 61 62 65 65 63 61 59 56 52 49 46 46 47 46 44 43 41 40 40 40 40 39 39 41 42 43 42 40 39 39 41 42 42 38 34 32 33 35 39 43 44 45 45 45 46 48 52 55 58 60 63 67 71 74 78 82 88 94 101 105 107 108 109 109 110 109 109 109
50 51 54 55 58 61 62 63 66 67 64 62 60 57 53 49 47 46 47 46 44 43 42 41 41 41 41 40 39 40 41 42 42 40 39 39 40 42 42 39 35 32 31 33 36 40 42 43 44 45 45 46 48 52 55 56 58 62 66 70 74 78 82 87 93 100 104 106 107 108 108 109 109 110
51 52 54 55 58 62 64 64 68 70 67 64 62 59 55 51 48 47 46 45 45 43 42 42 42 42 42 41 39 39 41 41 41 40 39 40 41 42 42 40 36 32 31 31 33 36 40 42 43 45 46 46 46 48 51 53 54 56 60 64 68 72 77 81 86 92 98 102 105 106 107 107 108 109
52 54 55 56 59 63 65 65 68 70 68 66 64 61 56 52 49 48 47 45 45 44 43 43 42 41 42 42 41 40 40 41 41 41 40 40 41 42 42 41 38 34 31 31 31 33 37 40 42 44 45 46 46 46 48 50 51 53 55 58 62 66 71 75 80 85 91 96 101 104 106 107 107 107
54 56 57 58 61 64 65 66 67 68 67 65 63 60 56 52 49 48 47 46 45 45 44 43 42 41 41 42 42 41 41 41 41 41 41 41 41 42 43 42 39 35 33 32 31 31 34 38 41 43 45 45 46 46 46 47 49 51 52 54 58 61 65 69 73 78 83 89 95 100 103 105 106 106
56 58 59 61 64 66 67 67 67 67 65 64 62 59 55 52 49 48 47 46 45 45 45 43 42 41 41 41 42 42 42 42 42 42 42 41 42 43 43 42 40 37 35 34 32 31 32 35 39 41 43 44 44 45 46 46 47 49 51 53 55 58 62 65 67 71 76 82 87 93 98 101 104 105
60 61 62 64 66 68 68 68 68 67 65 63 61 57 54 52 50 48 47 46 46 46 44 43 43 42 41 41 41 42 42 43 43 43 42 41 42 44 45 44 42 39 37 35 34 33 32 33 36 38 40 41 42 43 44 45 46 47 49 51 54 57 60 62 64 67 70 74 80 85 91 95 100 103
63 63 64 66 68 68 67 66 66 66 65 63 60 56 54 52 51 49 48 47 47 46 45 44 44 43 42 41 41 41 42 43 43 43 43 41 42 44 46 45 43 41 39 37 37 35 33 32 33 35 37 38 39 41 42 44 45 45 47 49 52 55 58 60 62 64 67 69 73 78 83 88 93 98
65 65 65 66 68 68 66 65 64 63 63 62 59 56 54 53 52 50 49 48 47 47 46 45 44 43 42 42 42 41 42 42 43 43 42 41 42 44 46 46 44 42 40 39 39 38 36 33 31 32 33 35 36 38 40 42 43 44 45 47 50 53 55 57 60 63 65 67 69 72 77 82 86 91
66 67 66 67 67 67 67 66 63 61 61 60 58 54 53 53 52 52 51 50 48 47 47 46 45 44 43 43 42 42 42 42 42 42 41 41 42 44 46 47 46 44 42 41 40 41 39 35 31 31 31 32 33 35 37 39 41 42 44 46 48 50 52 55 57 61 64 66 68 70 72 76 80 84
67 68 68 68 67 67 66 65 62 60 60 60 57 53 52 52 52 52 52 51 49 48 47 47 46 45 44 44 43 43 43 42 41 40 40 41 42 44 46 46 46 46 44 42 41 42 42 38 34 32 30 30 31 33 35 37 39 40 42 44 46 48 50 52 55 58 61 64 67 69 71 73 76 79
68 68 69 68 67 67 67 65 62 59 59 59 58 54 52 52 53 53 52 51 49 48 47 47 47 46 45 45 44 43 43 42 41 40 40 41 42 43 45 46 47 47 45 43 42 43 43 41 38 35 32 30 31 32 34 35 37 38 39 41 43 45 47 50 53 56 59 62 65 68 70 72 73 75
68 68 69 68 67 67 68 66 63 60 59 59 58 55 54 55 56 54 51 50 49 47 46 46 47 47 47 46 45 44 44 43 40 39 39 40 41 42 43 45 47 47 46 44 43 44 44 43 41 38 35 33 32 33 34 34 35 36 38 39 41 42 44 47 50 53 55 59 62 65 68 70 72 74
68 67 68 67 67 67 67 67 65 62 60 58 57 55 56 58 57 54 51 50 49 47 47 47 47 48 48 47 46 45 45 43 41 40 39 39 40 41 42 44 46 47 46 44 44 44 44 44 43 42 39 36 35 35 35 35 35 35 37 38 40 40 42 45 48 50 52 55 59 62 65 68 70 72
68 67 67 66 66 66 66 66 66 64 62 59 56 54 56 59 57 53 52 52 49 46 47 48 48 48 48 47 46 45 44 44 43 41 40 39 39 40 41 43 45 46 45 44 44 44 45 45 45 44 42 40 38 38 37 36 36 36 36 38 39 39 40 42 45 47 49 52 56 59 62 65 68 70
Wind_Direction
347 343 333 319 308 303 297 291 286 282 276 268 261 256 252 249 246 244 243 242 240 239 237 236 234 232 232 233 233 233 234 236 238 239 239 238 238 238 238 238 239 239 239 238 237 236 235 235 235 236 239 243 247 248 249 251 253 252 251 251 250 251 254 254 252 250 249 247 244 240 237 235 235 235
342 341 337 327 318 314 311 303 294 288 284 279 273 265 259 254 250 247 245 244 243 241 239 238 237 235 233 232 233 234 234 235 236 237 238 239 240 240 239 238 238 239 240 240 240 239 239 238 237 237 239 242 245 247 248 248 250 252 252 250 249 249 251 252 250 248 247 247 245 242 239 238 238 238
337 337 334 328 323 322 323 318 308 297 290 285 280 275 268 261 256 252 249 247 245 243 241 240 238 237 235 233 233 233 234 235 235 236 237 238 239 240 239 238 237 237 238 239 240 240 240 241 240 240 241 243 245 246 246 246 248 250 251 249 247 247 248 250 248 245 245 245 246 243 241 240 240 241
332 332 330 325 322 325 328 325 319 310 302 294 286 280 275 270 264 258 253 250 248 246 244 242 240 239 237 236 234 233 234 234 235 235 236 237 238 239 239 239 238 237 236 236 237 238 239 241 242 242 242 242 244 244 244 244 245 246 248 248 247 246 247 248 248 245 243 242 244 245 242 241 241 242
327 328 326 321 320 324 327 326 322 316 311 306 299 289 281 274 270 265 260 255 252 250 247 245 243 241 239 238 237 235 233 234 235 235 235 236 237 238 239 239 238 238 236 235 234 235 237 238 240 241 242 241 241 241 242 244 243 243 247 247 246 245 246 247 247 247 244 240 241 244 243 241 241 243
323 323 320 317 319 324 325 324 321 318 314 312 309 303 293 283 274 269 266 262 257 254 251 248 246 244 241 239 239 237 235 234 235 235 235 235 236 237 238 238 238 238 237 235 234 233 234 235 237 238 239 240 240 240 240 243 243 242 244 245 244 244 246 246 246 246 244 240 238 239 241 241 242 242
318 318 315 314 317 322 322 320 318 316 313 312 311 310 304 295 284 275 270 268 264 260 256 252 248 246 245 242 240 239 238 236 235 235 235 235 235 235 236 237 237 237 237 237 235 234 233 234 236 237 236 237 239 238 239 242 244 243 242 243 245 245 246 246 245 245 244 243 240 238 238 239 240 242
313 313 312 313 317 319 316 314 314 314 312 311 310 309 308 302 294 286 277 272 269 265 262 258 253 249 247 245 243 240 239 238 236 235 235 235 235 235 235 235 236 237 237 237 237 236 235 235 236 236 235 235 236 237 238 241 243 243 240 240 243 244 244 244 245 245 245 246 245 243 240 237 237 240
310 311 313 315 316 313 310 310 310 311 311 310 308 306 306 303 298 292 286 279 273 269 265 262 259 254 250 247 246 243 241 239 238 236 236 235 235 235 235 235 235 235 236 237 238 238 237 236 236 235 235 235 234 236 238 240 242 242 240 239 241 242 243 243 243 244 245 246 247 246 245 241 237 238
310 312 314 313 310 308 307 307 308 308 309 308 307 305 303 302 298 294 290 285 279 273 268 264 262 259 255 251 248 246 244 242 240 238 236 236 236 235 235 235 234 235 235 236 237 238 238 238 237 235 234 234 234 234 236 237 240 241 241 241 240 241 242 242 242 242 243 245 247 247 247 246 241 239
313 313 312 309 306 305 306 307 308 308 308 307 306 304 302 300 298 295 291 288 284 279 273 268 263 261 259 256 252 249 246 244 243 240 238 236 236 236 235 235 234 234 234 235 236 237 237 238 237 236 235 234 233 233 234 235 236 238 240 241 240 240 242 242 242 241 242 244 247 247 247 247 245 243
315 313 311 309 309 309 309 310 310 310 309 307 306 303 301 298 297 296 293 290 286 284 279 273 267 262 260 258 256 252 249 246 244 243 241 238 237 236 235 235 235 234 234 234 235 235 236 237 237 236 235 234 234 233 233 234 235 236 238 239 240 240 241 241 241 241 241 243 245 246 247 247 245 244
319 319 318 319 318 317 316 315 314 312 311 309 307 305 302 299 297 295 294 290 287 283 281 278 273 267 262 259 257 255 253 250 246 244 243 241 239 237 236 235 235 235 234 234 234 234 234 235 236 236 236 235 234 235 235 236 237 237 237 238 239 240 242 242 241 241 241 242 243 244 246 247 244 242
325 325 326 327 326 325 323 321 319 317 315 312 309 306 304 301 298 296 294 291 287 283 280 278 275 271 266 262 259 256 255 253 251 248 246 244 242 240 238 236 235 235 235 235 234 234 233 234 235 236 236 236 236 236 238 239 240 239 239 240 240 241 242 243 242 241 241 241 241 242 243 244 243 241
327 329 330 330 330 329 327 325 322 320 317 315 312 308 305 302 299 297 294 291 288 284 280 277 275 273 269 265 262 259 256 254 253 251 249 247 245 243 241 238 236 235 235 235 235 234 234 233 234 235 236 237 237 237 238 239 240 241 241 241 242 242 243 243 243 242 241 240 240 240 241 243 244 243
326 328 330 330 329 328 326 325 323 321 319 317 314 311 308 305 301 298 295 292 288 285 281 278 275 273 270 267 264 262 259 256 254 253 251 250 248 246 244 241 239 237 236 236 236 235 234 234 234 234 234 236 238 238 239 239 240 241 241 242 243 243 243 244 244 243 242 241 240 240 242 245 246 244
323 324 325 326 326 326 325 324 323 322 321 319 316 314 310 307 303 299 296 292 288 285 282 279 276 274 272 269 266 264 262 259 256 254 252 251 250 249 246 244 241 238 237 237 237 237 236 234 234 234 234 234 236 238 239 240 240 240 241 241 242 242 243 244 244 243 242 241 240 241 242 245 247 245
320 321 321 322 322 323 324 324 323 322 321 320 318 316 312 308 303 300 297 293 289 285 282 279 277 275 273 271 268 266 264 262 259 257 254 252 251 250 249 247 244 241 239 239 239 238 238 236 235 235 235 235 235 236 238 239 240 240 240 240 240 241 241 242 242 242 241 240 240 241 243 245 245 243
317 317 318 318 318 319 321 322 323 323 322 321 320 318 313 307 302 299 297 295 292 288 284 281 278 276 274 272 271 268 266 265 262 260 258 255 253 252 251 249 247 244 242 241 240 240 239 238 237 236 236 236 235 235 235 237 239 240 241 240 239 239 239 240 240 241 241 241 241 242 243 244 243 242
314 314 314 315 315 316 317 319 321 321 321 320 320 318 314 308 302 299 298 297 295 291 287 283 280 278 276 274 272 270 269 267 265 263 260 258 256 255 253 251 249 247 245 244 243 243 241 240 239 238 237 237 236 236 235 235 237 239 240 241 240 239 239 239 239 240 240 241 242 243 243 243 242 242
309 310 311 312 312 313 314 316 318 319 319 319 319 318 315 311 306 302 300 299 297 294 291 287 283 280 278 276 274 272 271 269 268 266 264 261 258 257 256 254 251 248 247 246 246 246 244 242 240 240 239 237 237 237 236 235 235 236 238 240 241 240 239 238 238 239 239 240 241 243 243 242 241 241
305 305 306 308 310 311 312 313 315 316 317 318 318 317 316 312 308 304 302 300 297 295 292 290 286 283 280 278 276 275 273 273 271 270 267 264 261 259 258 257 255 252 248 247 247 248 246 244 242 241 240 239 237 237 237 237 236 235 236 238 239 240 240 239 238 238 238 238 240 242 243 242 241 240
301 301 303 304 306 308 309 311 312 313 316 317 316 316 316 313 308 304 302 301 298 295 293 291 289 286 284 281 279 278 276 276 275 273 271 268 265 263 260 259 259 257 253 250 248 248 247 246 244 243 242 241 239 238 237 237 237 236 235 235 237 238 240 240 239 238 237 237 238 240 242 242 241 240
299 299 300 302 303 306 307 308 309 311 315 315 315 315 316 314 309 304 302 301 299 295 293 291 289 287 286 284 282 281 279 279 278 277 274 271 268 266 264 262 262 261 259 255 252 250 248 246 246 245 244 242 241 240 238 237 237 237 236 235 235 236 237 238 239 238 238 237 237 238 239 241 241 241
298 298 299 300 302 304 305 305 307 311 313 314 314 314 315 314 310 305 301 300 300 296 293 291 290 288 287 286 285 283 282 281 280 279 277 275 272 269 268 266 265 264 263 260 257 253 250 247 246 246 245 244 243 242 240 238 236 236 237 236 235 235 235 236 237 238 238 238 237 237 238 239 240 241
295 296 298 299 301 303 303 304 307 309 311 312 313 314 314 314 310 305 301 300 300 297 294 292 290 289 288 287 286 285 284 282 282 281 279 277 275 273 272 271 269 267 264 262 260 257 253 249 246 246 246 246 245 243 242 241 238 236 236 236 236 235 234 235 235 236 237 238 238 237 237 238 239 240
294 295 297 298 300 301 302 304 306 308 309 311 313 314 314 313 310 306 303 301 299 298 295 292 291 289 288 287 286 285 284 284 283 282 281 278 276 275 274 273 271 268 264 263 262 260 257 253 249 247 247 247 247 246 244 243 241 239 237 236 236 236 235 235 234 235 235 236 237 237 238 238 238 239
294 295 296 297 299 301 302 304 306 306 308 311 312 313 314 313 310 307 303 300 299 297 295 292 290 289 288 287 287 285 285 284 284 283 281 279 278 277 276 274 272 268 265 263 263 262 260 256 252 249 249 248 248 247 246 245 243 241 239 237 236 235 236 235 235 235 235 235 236 236 237 238 238 239
294 295 295 297 299 301 302 304 305 306 308 310 312 314 314 312 309 307 303 300 298 297 295 292 289 288 287 287 287 286 286 285 284 283 281 280 280 280 279 277 273 270 266 264 263 263 262 259 255 251 250 249 248 247 246 245 244 242 241 239 237 235 235 235 235 235 235 235 235 235 236 237 238 239
294 295 295 297 299 300 302 303 304 305 307 309 311 313 312 310 308 306 303 301 299 298 297 293 288 287 287 287 286 286 286 286 285 284 282 281 281 281 280 279 276 272 268 265 264 264 263 262 258 254 251 250 250 249 246 244 244 243 242 240 239 237 235 235 235 235 235 235 235 235 236 236 237 238
293 294 294 295 297 298 299 301 301 302 305 308 310 311 311 309 307 305 303 301 300 300 299 295 289 287 286 286 286 286 286 286 286 285 284 282 282 282 282 281 279 274 269 267 266 265 264 263 261 258 255 252 251 250 249 246 244 243 242 241 240 239 237 236 235 235 235 235 235 236 236 236 236 237
292 292 292 294 295 296 298 300 301 302 305 307 309 310 309 308 307 304 301 300 300 300 299 296 290 287 285 285 285 285 285 285 286 285 284 283 283 283 284 283 281 277 272 269 268 267 266 265 263 262 259 256 253 251 250 249 246 244 242 241 241 239 238 237 236 235 234 235 235 236 236 236 237 237
290 290 291 293 294 295 297 299 300 301 303 305 307 307 307 307 305 302 300 299 299 300 299 295 291 287 285 285 285 284 284 285 285 285 284 283 283 284 284 284 283 280 275 271 270 268 267 266 265 264 263 260 257 253 251 250 248 246 244 243 242 240 239 238 237 236 235 235 235 235 236 236 237 237
289 289 289 291 292 293 294 296 297 298 300 303 303 303 304 304 303 300 298 298 298 298 296 294 292 289 285 284 284 284 284 285 285 285 284 283 283 284 284 285 284 282 278 274 271 269 268 265 264 264 264 263 260 256 253 251 250 248 246 244 243 242 241 239 238 237 236 235 235 235 236 236 237 237
287 287 288 289 290 290 291 292 293 295 297 298 298 299 300 300 299 297 296 296 296 296 294 294 293 290 286 284 283 284 284 284 285 284 283 283 283 284 284 285 285 283 281 278 273 271 269 265 263 263 263 262 261 259 256 253 251 250 248 246 244 243 242 241 239 238 237 236 236 236 236 236 237 237
287 287 288 288 289 289 290 291 292 293 294 295 295 296 297 297 295 294 293 294 294 293 293 293 293 290 287 285 284 283 283 284 284 284 283 283 283 283 284 285 285 284 284 281 277 275 271 266 262 261 261 261 261 260 258 256 253 252 250 248 245 244 243 242 241 240 239 238 237 237 237 237 237 238
286 286 287 287 287 287 289 291 292 292 293 293 293 294 295 295 293 292 291 291 291 291 291 291 290 289 288 287 286 285 284 283 283 283 282 282 282 283 283 284 284 285 286 284 281 279 275 268 262 261 261 261 261 261 260 259 256 254 252 250 248 246 244 243 242 241 240 239 238 238 237 237 238 238
286 286 286 285 285 286 287 288 289 290 291 291 292 294 294 293 292 291 290 289 289 289 289 288 288 287 288 288 287 286 285 284 282 281 281 280 280 281 282 283 284 285 286 285 284 282 279 272 265 261 261 262 262 262 262 260 259 256 254 252 250 248 246 244 243 243 242 240 239 239 238 238 238 238
286 286 285 285 285 286 286 286 287 288 289 289 290 291 292 291 290 290 289 288 288 288 287 286 285 285 286 287 287 287 286 284 283 282 281 279 278 278 279 281 283 285 286 285 285 285 282 277 269 264 263 264 264 264 264 262 261 259 257 254 252 250 248 246 244 243 242 242 241 240 239 239 239 239
286 286 285 285 285 285 286 286 287 288 288 289 289 289 289 289 289 288 287 287 287 286 286 284 283 283 283 284 285 285 285 284 284 284 283 280 276 276 278 280 283 284 284 285 285 285 284 282 276 270 267 267 267 267 267 265 263 261 259 256 254 251 250 248 245 244 242 242 241 241 240 240 239 239
286 286 285 285 285 285 285 286 287 288 288 288 288 288 287 287 286 285 285 285 285 284 283 282 280 280 280 281 282 283 284 284 285 285 285 281 278 276 278 280 281 282 283 284 284 284 284 284 281 276 272 271 272 272 271 269 267 264 262 259 257 254 251 249 247 245 243 242 241 241 240 240 240 240
285 285 285 285 286 286 286 286 287 287 287 287 287 288 287 286 284 282 282 283 282 281 280 278 277 276 276 277 279 280 282 283 284 285 285 283 281 279 278 279 279 281 282 283 282 282 283 284 284 282 278 276 277 277 276 274 272 270 266 263 260 257 254 251 248 246 244 243 242 241 241 241 241 240
285 285 284 285 285 285 285 286 286 286 286 285 286 287 287 284 282 281 281 280 279 278 276 274 272 272 272 273 275 277 279 281 283 285 285 284 283 282 280 278 278 279 281 281 280 281 282 283 284 284 283 281 281 281 280 278 277 275 272 268 264 260 256 252 250 247 245 244 243 242 242 242 241 241
284 284 284 284 284 284 284 285 285 285 284 284 284 285 284 282 281 281 280 278 276 274 272 270 268 268 269 270 272 274 277 280 282 283 283 284 283 281 280 278 278 278 279 280 279 279 280 282 283 284 285 284 285 285 284 282 281 279 277 273 268 263 258 254 252 249 246 245 244 243 243 243 242 242
283 282 282 282 282 282 282 283 283 283 283 283 282 282 280 280 280 280 279 276 275 273 271 269 268 267 268 269 271 273 276 279 279 280 281 282 281 280 280 279 278 278 279 279 278 278 279 280 282 283 284 285 286 286 286 285 284 283 281 277 272 267 262 257 253 251 248 246 244 243 243 243 243 243
Height
10596 10595 10593 10591 10589 10588 10586 10585 10583 10582 10581 10581 10581 10582 10583 10585 10586 10588 10590 10592 10594 10596 10599 10601 10605 10608 10611 10613 10615 10618 10620 10623 10626 10629 10632 10636 10639 10643 10646 10648 10650 10652 10655 10659 10662 10663 10664 10665 10667 10669 10669 10668 10668 10671 10674 10676 10676 10676 10678 10680 10682 10683 10684 10685 10686 10687 10687 10688 10689 10690 10690 10691 10692 10692
10593 10592 10590 10589 10586 10585 10583 10581 10580 10579 10578 10577 10576 10576 10577 10578 10579 10580 10582 10583 10584 10586 10589 10592 10596 10599 10602 10604 10606 10609 10612 10615 10619 10622 10625 10628 10631 10635 10638 10641 10643 10645 10648 10651 10654 10655 10657 10659 10660 10662 10662 10662 10664 10666 10669 10670 10670 10672 10675 10676 10677 10678 10679 10681 10682 10683 10684 10685 10685 10686 10687 10688 10689 10689
10590 10588 10587 10586 10584 10581 10580 10578 10577 10575 10574 10573 10572 10572 10571 10572 10572 10573 10574 10575 10575 10577 10579 10582 10585 10589 10592 10594 10597 10599 10602 10606 10610 10614 10617 10620 10624 10627 10631 10634 10637 10639 10642 10644 10645 10647 10649 10651 10653 10655 10657 10657 10659 10661 10663 10664 10666 10668 10669 10670 10672 10673 10675 10676 10678 10679 10680 10681 10682 10683 10684 10684 10685 10686
10586 10585 10583 10582 10580 10578 10576 10575 10574 10572 10571 10569 10568 10567 10567 10566 10567 10567 10568 10568 10568 10568 10570 10573 10575 10578 10581 10584 10587 10590 10593 10596 10600 10605 10608 10612 10615 10618 10622 10626 10629 10632 10635 10637 10638 10639 10641 10643 10645 10648 10651 10652 10654 10655 10656 10658 10661 10662 10662 10663 10666 10668 10670 10672 10674 10675 10676 10677 10678 10679 10679 10680 10681 10682
10583 10581 10580 10578 10576 10574 10573 10572 10570 10569 10567 10566 10564 10563 10563 10562 10562 10561 10561 10562 10561 10561 10562 10564 10566 10568 10571 10574 10576 10580 10584 10587 10591 10595 10599 10602 10605 10609 10613 10617 10620 10623 10627 10629 10631 10632 10634 10635 10638 10640 10643 10646 10648 10649 10650 10652 10655 10656 10656 10658 10660 10663 10665 10668 10670 10671 10672 10673 10674 10674 10675 10676 10677 10678
10580 10578 10576 10575 10573 10571 10569 10568 10567 10565 10563 10562 10560 10559 10558 10557 10557 10556 10556 10556 10555 10555 10555 10557 10558 10559 10561 10564 10566 10570 10575 10578 10581 10585 10588 10592 10595 10599 10603 10607 10611 10614 10618 10621 10623 10625 10627 10628 10630 10633 10635 10637 10640 10642 10643 10645 10648 10651 10651 10651 10654 10657 10660 10663 10665 10665 10666 10668 10669 10669 10670 10671 10672 10673
10576 10575 10573 10571 10569 10567 10566 10564 10563 10561 10559 10558 10556 10555 10554 10553 10552 10552 10551 10550 10550 10549 10549 10550 10550 10551 10553 10555 10557 10560 10563 10568 10572 10575 10578 10582 10585 10589 10593 10597 10601 10604 10608 10612 10614 10617 10619 10620 10622 10625 10627 10629 10631 10633 10635 10637 10640 10643 10645 10646 10649 10653 10656 10658 10659 10659 10660 10663 10664 10665 10665 10666 10668 10669
10572 10571 10569 10567 10565 10564 10562 10561 10559 10557 10555 10553 10552 10551 10549 10548 10547 10546 10546 10545 10545 10544 10543 10543 10543 10544 10545 10546 10548 10550 10553 10556 10561 10565 10568 10572 10575 10579 10583 10587 10590 10594 10598 10602 10605 10608 10610 10612 10614 10617 10619 10621 10623 10624 10626 10629 10632 10635 10638 10640 10642 10646 10649 10651 10652 10653 10655 10658 10660 10661 10661 10661 10663 10664
10568 10566 10564 10562 10561 10560 10558 10557 10555 10553 10551 10549 10547 10546 10545 10544 10542 10541 10540 10540 10539 10538 10538 10537 10537 10537 10538 10539 10540 10542 10544 10546 10549 10553 10558 10561 10565 10569 10572 10576 10580 10584 10587 10591 10595 10598 10601 10604 10606 10608 10610 10612 10614 10617 10619 10621 10623 10627 10631 10634 10636 10638 10641 10644 10646 10648 10650 10652 10655 10656 10656 10658 10659 10659
10563 10561 10559 10558 10557 10555 10554 10552 10551 10549 10546 10544 10542 10541 10540 10539 10538 10537 10535 10535 10534 10533 10532 10531 10531 10531 10532 10532 10533 10534 10536 10538 10540 10543 10546 10550 10554 10558 10562 10566 10570 10574 10577 10580 10584 10588 10592 10595 10597 10599 10601 10603 10606 10609 10611 10613 10616 10619 10623 10627 10629 10631 10634 10637 10639 10641 10643 10646 10648 10650 10651 10654 10655 10654
10558 10557 10555 10554 10552 10551 10549 10547 10546 10544 10542 10540 10538 10536 10535 10534 10533 10532 10531 10529 10528 10527 10526 10526 10526 10525 10525 10525 10526 10526 10527 10529 10531 10533 10536 10539 10543 10546 10550 10555 10559 10563 10566 10570 10573 10577 10581 10585 10588 10590 10592 10594 10597 10600 10602 10606 10609 10611 10614 10618 10621 10623 10627 10630 10632 10634 10637 10639 10642 10644 10646 10648 10649 10650
10554 10553 10551 10549 10548 10546 10544 10542 10540 10539 10537 10535 10533 10531 10530 10529 10527 10526 10525 10524 10523 10522 10521 10520 10520 10520 10519 10519 10519 10519 10519 10521 10522 10524 10526 10529 10532 10534 10538 10543 10548 10551 10555 10559 10563 10567 10570 10574 10577 10580 10583 10585 10587 10590 10594 10597 10600 10603 10605 10609 10612 10615 10618 10622 10625 10627 10630 10633 10635 10637 10639 10641 10642 10643
10550 10549 10547 10545 10543 10541 10539 10537 10535 10534 10532 10530 10529 10527 10525 10523 10522 10521 10520 10519 10518 10517 10515 10514 10514 10513 10513 10513 10512 10512 10512 10513 10514 10515 10516 10519 10521 10523 10526 10531 10536 10540 10544 10547 10551 10555 10559 10562 10565 10569 10573 10575 10578 10581 10584 10588 10591 10594 10596 10599 10602 10605 10609 10613 10617 10620 10623 10626 10628 10630 10632 10633 10633 10635
10547 10545 10542 10540 10538 10536 10534 10532 10530 10528 10527 10525 10524 10522 10520 10518 10516 10515 10514 10513 10512 10511 10510 10509 10508 10507 10507 10506 10506 10506 10506 10506 10506 10507 10508 10509 10511 10513 10515 10520 10524 10528 10532 10535 10538 10543 10548 10550 10553 10557 10560 10564 10568 10571 10574 10578 10581 10584 10587 10589 10592 10596 10599 10603 10608 10612 10616 10619 10621 10622 10623 10623 10623 10626
10542 10540 10538 10536 10533 10531 10529 10527 10525 10523 10522 10520 10518 10517 10515 10513 10511 10509 10508 10507 10505 10504 10503 10503 10502 10500 10500 10500 10500 10499 10499 10499 10499 10499 10500 10501 10502 10503 10505 10509 10513 10517 10520 10523 10525 10530 10535 10538 10540 10544 10547 10551 10555 10559 10563 10567 10570 10573 10576 10579 10582 10586 10589 10593 10598 10603 10608 10611 10611 10613 10614 10614 10616 10619
10538 10536 10534 10532 10529 10527 10525 10523 10520 10518 10516 10514 10512 10511 10509 10507 10505 10503 10502 10500 10499 10498 10496 10496 10495 10494 10493 10493 10493 10492 10491 10492 10492 10492 10492 10493 10493 10494 10495 10498 10502 10506 10509 10511 10512 10516 10522 10526 10528 10531 10535 10538 10542 10546 10551 10555 10559 10563 10566 10569 10573 10576 10579 10583 10588 10594 10598 10600 10602 10604 10606 10607 10610 10612
10533 10532 10530 10528 10525 10523 10521 10518 10516 10513 10511 10508 10506 10504 10502 10500 10499 10497 10495 10493 10492 10491 10490 10489 10488 10487 10486 10486 10487 10486 10485 10484 10484 10484 10485 10485 10485 10485 10486 10488 10491 10496 10499 10500 10500 10502 10508 10513 10516 10518 10522 10526 10530 10534 10538 10543 10547 10551 10555 10559 10563 10566 10570 10574 10579 10584 10587 10589 10591 10594 10597 10599 10602 10604
10528 10526 10524 10523 10521 10518 10516 10513 10511 10508 10506 10503 10501 10499 10496 10494 10492 10490 10488 10486 10485 10484 10483 10482 10481 10480 10479 10478 10479 10479 10478 10477 10477 10476 10476 10477 10477 10476 10477 10479 10482 10486 10488 10489 10489 10489 10494 10500 10504 10506 10510 10515 10519 10523 10526 10530 10535 10539 10544 10548 10552 10556 10560 10565 10568 10570 10573 10577 10580 10584 10587 10590 10593 10595
10523 10520 10519 10517 10515 10513 10511 10508 10506 10503 10500 10497 10495 10493 10490 10488 10485 10483 10481 10479 10477 10476 10475 10474 10474 10473 10472 10471 10470 10471 10471 10470 10469 10469 10468 10469 10469 10468 10468 10470 10473 10476 10478 10479 10478 10478 10482 10488 10492 10495 10499 10503 10508 10512 10515 10518 10522 10526 10531 10536 10542 10546 10550 10554 10556 10558 10561 10567 10570 10573 10577 10581 10584 10587
10517 10514 10513 10511 10509 10507 10505 10503 10501 10498 10494 10491 10489 10487 10484 10481 10479 10477 10475 10472 10470 10469 10468 10467 10466 10465 10465 10464 10463 10463 10463 10462 10462 10461 10461 10461 10460 10459 10459 10461 10464 10467 10469 10469 10469 10468 10470 10476 10480 10483 10487 10491 10495 10500 10504 10507 10511 10514 10519 10524 10530 10535 10539 10543 10546 10549 10552 10557 10559 10562 10567 10572 10575 10578
10511 10508 10506 10504 10502 10500 10498 10497 10495 10492 10489 10486 10483 10480 10477 10474 10472 10471 10469 10466 10464 10462 10461 10460 10459 10458 10457 10456 10455 10456 10456 10455 10454 10453 10453 10453 10452 10451 10451 10452 10454 10457 10459 10461 10460 10458 10460 10464 10468 10470 10474 10479 10483 10486 10491 10496 10500 10504 10507 10512 10517 10522 10528 10533 10537 10540 10543 10547 10549 10551 10556 10562 10566 10568
10505 10503 10500 10499 10496 10493 10491 10490 10488 10486 10483 10480 10477 10474 10471 10468 10466 10464 10462 10460 10458 10456 10454 10452 10451 10450 10449 10448 10448 10448 10448 10447 10446 10445 10444 10444 10444 10443 10443 10444 10444 10446 10450 10453 10452 10449 10449 10453 10456 10457 10460 10465 10470 10473 10477 10483 10488 10493 10497 10501 10504 10509 10516 10522 10526 10530 10533 10537 10539 10541 10545 10550 10555 10558
10498 10496 10494 10493 10491 10488 10485 10482 10481 10479 10477 10474 10470 10468 10465 10462 10460 10457 10455 10454 10452 10449 10447 10445 10444 10442 10442 10441 10440 10440 10440 10439 10438 10437 10436 10436 10436 10435 10435 10436 10435 10436 10441 10444 10442 10439 10439 10442 10445 10447 10449 10452 10455 10459 10464 10469 10474 10480 10485 10489 10492 10497 10503 10510 10515 10518 10522 10526 10529 10532 10535 10538 10543 10547
10489 10488 10487 10485 10484 10482 10479 10475 10473 10472 10471 10467 10464 10461 10459 10456 10453 10450 10448 10447 10445 10443 10441 10439 10437 10435 10434 10433 10432 10432 10432 10431 10430 10428 10428 10427 10427 10427 10427 10427 10427 10428 10431 10432 10431 10429 10430 10433 10435 10436 10438 10440 10442 10445 10450 10456 10460 10466 10471 10476 10482 10487 10492 10496 10501 10505 10510 10515 10519 10522 10525 10528 10531 10535
10480 10478 10478 10477 10476 10475 10473 10469 10466 10464 10463 10461 10457 10455 10453 10450 10447 10444 10442 10440 10438 10436 10435 10433 10431 10429 10427 10426 10425 10424 10423 10423 10422 10420 10419 10419 10419 10418 10418 10419 10419 10420 10421 10421 10420 10420 10422 10423 10425 10426 10427 10429 10431 10433 10437 10442 10447 10452 10457 10463 10469 10476 10479 10482 10487 10492 10498 10503 10508 10512 10515 10518 10521 10524
10472 10470 10469 10468 10468 10467 10465 10462 10459 10457 10455 10453 10450 10448 10446 10444 10441 10437 10435 10433 10431 10430 10428 10426 10424 10422 10421 10419 10417 10416 10415 10415 10414 10413 10412 10411 10410 10410 10410 10410 10411 10412 10412 10411 10410 10411 10412 10414 10416 10417 10417 10419 10420 10422 10425 10430 10434 10439 10444 10449 10455 10461 10465 10469 10475 10480 10485 10491 10496 10501 10504 10508 10510 10513
10465 10463 10461 10460 10459 10458 10456 10454 10452 10449 10446 10444 10443 10441 10439 10437 10434 10431 10428 10426 10424 10422 10421 10419 10417 10415 10414 10412 10411 10409 10408 10407 10407 10406 10404 10403 10402 10402 10402 10402 10403 10403 10403 10402 10401 10402 10403 10405 10407 10408 10408 10409 10411 10412 10415 10419 10423 10427 10431 10436 10441 10446 10450 10456 10462 10468 10473 10478 10483 10488 10492 10496 10499 10502
10458 10456 10454 10452 10451 10449 10447 10445 10443 10440 10438 10436 10434 10433 10431 10429 10427 10424 10421 10419 10417 10415 10414 10413 10410 10408 10407 10406 10404 10402 10401 10400 10400 10399 10397 10396 10395 10394 10394 10394 10395 10395 10394 10393 10392 10393 10394 10396 10398 10398 10399 10399 10401 10403 10405 10408 10411 10415 10418 10422 10426 10431 10436 10442 10448 10454 10460 10465 10470 10475 10479 10483 10487 10491
10451 10449 10446 10444 10443 10441 10439 10436 10433 10430 10429 10428 10426 10425 10424 10422 10420 10417 10415 10412 10410 10408 10407 10406 10404 10402 10400 10399 10397 10395 10393 10393 10392 10392 10391 10389 10388 10386 10386 10387 10387 10387 10386 10385 10384 10384 10385 10386 10388 10389 10389 10389 10391 10393 10395 10397 10399 10402 10406 10409 10413 10417 10421 10427 10434 10440 10446 10451 10457 10462 10466 10470 10474 10478
10444 10442 10438 10436 10435 10433 10430 10427 10423 10420 10420 10419 10418 10417 10416 10415 10413 10410 10408 10405 10402 10401 10401 10399 10397 10395 10394 10393 10390 10388 10386 10385 10385 10384 10384 10382 10381 10379 10378 10379 10380 10379 10378 10377 10376 10376 10376 10377 10378 10380 10380 10381 10381 10383 10384 10386 10388 10390 10394 10397 10400 10403 10408 10413 10420 10426 10431 10437 10443 10448 10453 10457 10462 10466
10437 10435 10431 10429 10427 10424 10421 10419 10415 10412 10412 10411 10410 10409 10408 10407 10405 10403 10401 10398 10396 10394 10394 10392 10390 10388 10387 10386 10384 10382 10379 10377 10377 10377 10376 10375 10374 10372 10371 10371 10372 10372 10371 10370 10368 10368 10368 10368 10369 10370 10371 10371 10372 10373 10374 10376 10377 10379 10382 10385 10387 10391 10395 10400 10405 10411 10417 10423 10429 10435 10440 10444 10449 10453
10429 10427 10424 10422 10419 10415 10412 10410 10406 10403 10403 10403 10402 10401 10400 10398 10397 10395 10393 10391 10389 10387 10387 10385 10383 10381 10381 10379 10378 10376 10373 10371 10370 10370 10369 10368 10367 10366 10364 10364 10364 10365 10364 10363 10361 10360 10360 10360 10360 10360 10361 10362 10363 10363 10364 10365 10367 10369 10371 10373 10375 10379 10383 10387 10392 10397 10403 10410 10415 10420 10425 10430 10435 10439
10421 10419 10417 10415 10412 10406 10403 10403 10398 10394 10394 10395 10394 10393 10391 10390 10389 10387 10386 10384 10382 10381 10380 10378 10375 10374 10373 10372 10371 10370 10367 10365 10364 10363 10362 10361 10360 10359 10357 10357 10357 10357 10357 10356 10354 10353 10352 10352 10352 10352 10352 10353 10353 10354 10355 10356 10358 10360 10362 10363 10365 10368 10371 10375 10379 10384 10390 10396 10401 10406 10411 10416 10421 10426
10413 10411 10409 10408 10405 10400 10397 10396 10393 10388 10387 10388 10386 10384 10384 10382 10381 10379 10378 10377 10375 10374 10372 10370 10369 10368 10366 10365 10364 10363 10361 10359 10357 10356 10355 10354 10354 10352 10351 10350 10350 10349 10349 10349 10348 10346 10345 10345 10344 10344 10344 10344 10345 10345 10347 10348 10349 10351 10353 10354 10356 10358 10360 10364 10368 10372 10377 10382 10387 10392 10397 10402 10408 10413
10405 10402 10401 10400 10397 10393 10390 10390 10387 10383 10382 10381 10378 10377 10376 10375 10374 10372 10371 10370 10369 10366 10364 10363 10362 10361 10359 10358 10357 10356 10354 10352 10351 10350 10348 10347 10347 10346 10344 10343 10343 10342 10342 10341 10341 10340 10339 10338 10337 10337 10336 10337 10337 10337 10338 10339 10340 10342 10344 10346 10348 10349 10351 10353 10357 10360 10364 10369 10374 10379 10384 10389 10394 10399
10395 10393 10392 10391 10388 10384 10381 10380 10379 10377 10375 10373 10370 10369 10368 10367 10365 10364 10364 10363 10362 10359 10357 10356 10355 10354 10352 10351 10350 10349 10348 10346 10345 10343 10342 10341 10340 10339 10337 10336 10335 10335 10335 10334 10333 10333 10332 10331 10330 10330 10329 10329 10330 10330 10330 10331 10333 10334 10335 10337 10338 10340 10341 10344 10347 10350 10353 10357 10362 10366 10371 10376 10381 10386
10385 10384 10383 10381 10377 10375 10373 10371 10369 10367 10365 10363 10362 10361 10360 10358 10357 10356 10356 10355 10354 10352 10350 10349 10347 10346 10345 10344 10343 10341 10341 10340 10338 10337 10336 10335 10333 10332 10330 10329 10328 10328 10327 10327 10326 10326 10325 10325 10324 10323 10323 10323 10323 10323 10323 10323 10324 10326 10327 10328 10329 10330 10332 10335 10338 10340 10343 10347 10351 10355 10360 10364 10369 10373
10374 10374 10373 10370 10367 10365 10365 10363 10360 10358 10356 10354 10353 10352 10351 10350 10348 10347 10347 10347 10346 10344 10343 10341 10339 10338 10337 10337 10335 10335 10334 10333 10332 10331 10330 10329 10327 10325 10323 10322 10321 10321 10320 10319 10318 10318 10318 10318 10318 10317 10317 10316 10316 10316 10316 10316 10316 10317 10318 10319 10320 10321 10323 10326 10329 10332 10334 10337 10340 10344 10348 10353 10357 10361
10364 10363 10362 10360 10356 10354 10354 10353 10351 10350 10348 10345 10344 10344 10342 10341 10339 10338 10338 10338 10337 10336 10335 10333 10332 10331 10330 10329 10328 10328 10327 10326 10325 10324 10324 10323 10321 10318 10316 10315 10314 10314 10313 10312 10311 10311 10310 10311 10311 10311 10310 10310 10309 10309 10309 10308 10309 10310 10310 10310 10311 10312 10314 10317 10320 10323 10325 10328 10331 10334 10338 10341 10345 10349
10353 10352 10351 10349 10347 10344 10343 10341 10340 10340 10339 10336 10334 10334 10334 10332 10331 10329 10329 10329 10329 10328 10327 10325 10324 10323 10322 10322 10321 10320 10320 10319 10318 10317 10317 10316 10314 10311 10309 10308 10307 10307 10306 10305 10305 10303 10303 10303 10304 10304 10304 10303 10303 10302 10301 10301 10301 10302 10302 10301 10302 10303 10305 10308 10311 10313 10316 10319 10322 10325 10328 10331 10334 10337
10342 10340 10338 10337 10336 10334 10332 10331 10330 10330 10328 10326 10325 10325 10325 10324 10322 10321 10320 10320 10320 10319 10318 10317 10316 10316 10315 10314 10314 10313 10312 10311 10311 10310 10310 10308 10306 10305 10303 10302 10301 10300 10299 10299 10298 10297 10296 10295 10296 10296 10297 10297 10296 10295 10294 10294 10294 10294 10294 10294 10294 10296 10297 10299 10301 10303 10305 10309 10312 10315 10317 10320 10323 10326
10331 10329 10326 10325 10324 10322 10320 10320 10320 10320 10318 10317 10315 10315 10316 10315 10313 10311 10312 10311 10311 10310 10310 10309 10308 10308 10307 10307 10307 10306 10305 10304 10304 10304 10303 10301 10300 10298 10297 10295 10294 10293 10292 10292 10292 10291 10289 10288 10288 10288 10289 10289 10289 10288 10288 10287 10286 10286 10286 10286 10287 10288 10289 10290 10291 10293 10296 10299 10302 10305 10307 10310 10314 10317
10320 10318 10316 10314 10313 10311 10308 10308 10309 10309 10309 10307 10306 10306 10306 10304 10302 10302 10303 10303 10302 10301 10300 10300 10300 10299 10299 10299 10299 10299 10298 10297 10298 10297 10296 10294 10293 10292 10290 10288 10287 10286 10286 10286 10285 10284 10283 10282 10281 10281 10281 10282 10282 10281 10281 10280 10280 10279 10279 10279 10279 10280 10281 10281 10281 10284 10287 10289 10292 10294 10297 10301 10304 10307
10309 10307 10305 10304 10303 10300 10298 10297 10297 10297 10298 10298 10298 10298 10296 10292 10291 10293 10293 10292 10292 10292 10291 10290 10291 10290 10290 10291 10291 10291 10290 10291 10291 10290 10289 10288 10287 10285 10283 10281 10280 10279 10279 10279 10279 10278 10276 10275 10274 10274 10274 10274 10274 10274 10273 10273 10272 10272 10272 10271 10271 10272 10273 10272 10273 10275 10278 10280 10282 10285 10288 10290 10293 10296
10296 10296 10295 10294 10292 10290 10289 10287 10285 10285 10286 10287 10288 10289 10286 10281 10281 10283 10283 10282 10283 10283 10281 10280 10281 10281 10282 10283 10283 10284 10284 10283 10283 10283 10282 10281 10280 10279 10277 10275 10273 10273 10273 10273 10272 10271 10270 10269 10268 10267 10267 10267 10267 10267 10266 10266 10265 10265 10265 10264 10264 10264 10265 10265 10265 10267 10270 10271 10273 10275 10278 10280 10282 10285